Location: Devore Heights
(34.2372°N, 117.4156°W)
Time: 12:36:30
(UTC+00:00)

Vanguard 1 Rocket - Pass Details

Date: 17 September 2024
Orbit: 650 x 4218 km, 34.3° (Epoch: 09 October)

Event Time Altitude Azimuth Distance (km) Brightness Sun altitude
Exits shadow 10:14:52 61° 176° (S) 2,709 9.4 -39.4°
Maximum altitude 10:16:32 63° 149° (SSE) 2,804 9.6 -39.1°
Drops below altitude 10° 10:37:44 10° 75° (ENE) 7,039 12.6 -35.5°
Sets 10:44:00 0° 74° (ENE) 8,328 13.3 -34.4°
